Time,TemperatureF,DewpointF,PressureIn,WindDirection,WindDirectionDegrees,WindSpeedMPH,WindSpeedGustMPH,Humidity,HourlyPrecipIn,Conditions,Clouds,dailyrainin,SolarRadiationWatts/m^2,SoftwareType,DateUTC
2013-04-19 00:01:00,40.0,25.6,30.11,NNW,329,6.0,13.0,56,0.01,,OVC050,0.00,0.00,VWS V14.01,2013-04-19 05:01:00,
2013-04-19 00:06:00,40.0,26.0,30.11,NW,319,0.0,10.0,57,0.01,,OVC050,0.00,0.00,VWS V14.01,2013-04-19 05:06:00,
2013-04-19 00:11:00,39.8,26.2,30.11,NNE,19,0.0,0.0,58,0.01,,OVC050,0.00,0.00,VWS V14.01,2013-04-19 05:11:00,
2013-04-19 00:16:00,39.7,26.1,30.11,NW,315,5.0,12.0,58,0.02,,OVC050,0.01,0.00,VWS V14.01,2013-04-19 05:16:00,
2013-04-19 00:21:00,39.6,25.6,30.11,NW,304,0.0,0.0,57,0.01,,OVC050,0.01,0.00,VWS V14.01,2013-04-19 05:21:00,
2013-04-19 00:26:00,39.4,25.9,30.11,WNW,302,0.0,0.0,58,0.01,,OVC050,0.01,0.00,VWS V14.01,2013-04-19 05:26:00,
2013-04-19 00:31:00,39.3,25.8,30.11,WNW,300,0.0,0.0,58,0.01,,OVC050,0.01,0.00,VWS V14.01,2013-04-19 05:31:00,
2013-04-19 00:36:00,39.1,26.0,30.11,WNW,300,0.0,0.0,59,0.01,,OVC050,0.01,0.00,VWS V14.01,2013-04-19 05:36:00,
2013-04-19 00:41:00,39.1,26.0,30.11,WNW,298,0.0,0.0,59,0.01,,OVC050,0.01,0.00,VWS V14.01,2013-04-19 05:41:00,
2013-04-19 00:46:00,39.0,25.9,30.11,WNW,289,0.0,0.0,59,0.01,,OVC050,0.01,0.00,VWS V14.01,2013-04-19 05:46:00,
2013-04-19 00:51:00,38.8,25.7,30.11,WNW,300,0.0,0.0,59,0.01,,OVC050,0.01,0.00,VWS V14.01,2013-04-19 05:51:00,
2013-04-19 00:56:00,38.7,25.6,30.11,NW,313,0.0,0.0,59,0.01,,OVC050,0.01,0.00,VWS V14.01,2013-04-19 05:56:00,
2013-04-19 01:01:00,38.6,25.9,30.11,NW,314,0.0,0.0,60,0.01,,OVC050,0.01,0.00,VWS V14.01,2013-04-19 06:01:00,
2013-04-19 01:06:00,38.6,25.9,30.11,WNW,291,0.0,0.0,60,0.01,,OVC050,0.01,0.00,VWS V14.01,2013-04-19 06:06:00,
2013-04-19 01:11:00,38.4,25.7,30.11,WNW,292,0.0,0.0,60,0.01,,OVC050,0.01,0.00,VWS V14.01,2013-04-19 06:11:00,
2013-04-19 01:16:00,38.4,25.7,30.11,WNW,288,0.0,0.0,60,0.00,,OVC050,0.01,0.00,VWS V14.01,2013-04-19 06:16:00,
2013-04-19 01:21:00,38.4,25.7,30.11,WNW,287,0.0,0.0,60,0.00,,OVC050,0.01,0.00,VWS V14.01,2013-04-19 06:21:00,
2013-04-19 01:26:00,38.3,25.6,30.11,WNW,289,0.0,0.0,60,0.00,,OVC050,0.01,0.00,VWS V14.01,2013-04-19 06:26:00,
2013-04-19 01:31:00,38.3,25.6,30.11,WNW,298,0.0,0.0,60,0.00,,OVC050,0.01,0.00,VWS V14.01,2013-04-19 06:31:00,
2013-04-19 01:36:00,38.3,25.6,30.11,WNW,291,0.0,0.0,60,0.00,,OVC050,0.01,0.00,VWS V14.01,2013-04-19 06:36:00,
2013-04-19 01:41:00,38.3,25.6,30.11,WNW,287,0.0,0.0,60,0.00,,OVC050,0.01,0.00,VWS V14.01,2013-04-19 06:41:00,
2013-04-19 01:46:00,38.1,25.5,30.11,WNW,288,0.0,0.0,60,0.00,,OVC050,0.01,0.00,VWS V14.01,2013-04-19 06:46:00,
2013-04-19 01:51:00,38.1,25.9,30.11,WNW,301,0.0,1.0,61,0.00,,OVC050,0.01,0.00,VWS V14.01,2013-04-19 06:51:00,
2013-04-19 01:56:00,38.1,25.5,30.11,WNW,297,0.0,5.0,60,0.01,,OVC050,0.02,0.00,VWS V14.01,2013-04-19 06:56:00,
2013-04-19 02:01:00,38.1,25.5,30.11,WNW,286,12.0,13.0,60,0.01,,CLR,0.02,0.00,VWS V14.01,2013-04-19 07:01:00,
2013-04-19 02:06:00,38.1,25.5,30.11,WNW,303,0.0,0.0,60,0.01,,CLR,0.02,0.00,VWS V14.01,2013-04-19 07:06:00,
2013-04-19 02:11:00,38.0,25.4,30.11,WNW,288,0.0,0.0,60,0.01,,CLR,0.02,0.00,VWS V14.01,2013-04-19 07:11:00,
2013-04-19 02:16:00,38.0,25.4,30.11,WNW,300,0.0,0.0,60,0.01,,CLR,0.02,0.00,VWS V14.01,2013-04-19 07:16:00,
2013-04-19 02:21:00,38.0,25.0,30.11,NW,317,0.0,0.0,59,0.01,,CLR,0.02,0.00,VWS V14.01,2013-04-19 07:21:00,
2013-04-19 02:26:00,38.0,25.0,30.11,NW,316,0.0,0.0,59,0.01,,CLR,0.02,0.00,VWS V14.01,2013-04-19 07:26:00,
2013-04-19 02:31:00,38.0,25.4,30.11,WNW,282,0.0,0.0,60,0.01,,CLR,0.02,0.00,VWS V14.01,2013-04-19 07:31:00,
2013-04-19 02:36:00,37.8,25.2,30.11,WNW,303,0.0,0.0,60,0.01,,CLR,0.02,0.00,VWS V14.01,2013-04-19 07:36:00,
2013-04-19 02:41:00,37.8,25.2,30.11,West,273,0.0,0.0,60,0.01,,CLR,0.02,0.00,VWS V14.01,2013-04-19 07:41:00,
2013-04-19 02:46:00,37.8,25.6,30.11,WNW,288,0.0,0.0,61,0.01,,CLR,0.02,0.00,VWS V14.01,2013-04-19 07:46:00,
2013-04-19 02:51:00,37.7,25.5,30.11,WNW,292,0.0,0.0,61,0.01,,CLR,0.02,0.00,VWS V14.01,2013-04-19 07:51:00,
2013-04-19 02:56:00,37.7,25.9,30.11,WNW,296,0.0,0.0,62,0.00,,CLR,0.02,0.00,VWS V14.01,2013-04-19 07:56:00,
2013-04-19 03:01:00,37.6,25.8,30.10,WNW,296,0.0,0.0,62,0.00,,CLR,0.02,0.00,VWS V14.01,2013-04-19 08:01:00,
2013-04-19 03:06:00,37.6,26.2,30.10,West,271,0.0,0.0,63,0.01,,CLR,0.03,0.00,VWS V14.01,2013-04-19 08:06:00,
2013-04-19 03:11:00,37.4,26.0,30.10,West,278,0.0,0.0,63,0.01,,CLR,0.03,0.00,VWS V14.01,2013-04-19 08:11:00,
2013-04-19 03:16:00,37.3,26.3,30.10,West,279,0.0,0.0,64,0.01,,CLR,0.03,0.00,VWS V14.01,2013-04-19 08:16:00,
2013-04-19 03:21:00,37.3,26.3,30.10,WNW,291,0.0,0.0,64,0.01,,CLR,0.03,0.00,VWS V14.01,2013-04-19 08:21:00,
2013-04-19 03:26:00,37.1,26.4,30.10,WNW,298,0.0,0.0,65,0.01,,CLR,0.03,0.00,VWS V14.01,2013-04-19 08:26:00,
2013-04-19 03:31:00,37.1,26.4,30.10,NW,311,0.0,0.0,65,0.01,,CLR,0.03,0.00,VWS V14.01,2013-04-19 08:31:00,
2013-04-19 03:36:00,37.1,26.4,30.10,WNW,286,0.0,0.0,65,0.01,,CLR,0.03,0.00,VWS V14.01,2013-04-19 08:36:00,
2013-04-19 03:41:00,37.1,26.4,30.10,West,280,0.0,0.0,65,0.01,,CLR,0.03,0.00,VWS V14.01,2013-04-19 08:41:00,
2013-04-19 03:46:00,37.0,26.3,30.10,NW,307,0.0,0.0,65,0.01,,CLR,0.03,0.00,VWS V14.01,2013-04-19 08:46:00,
2013-04-19 03:51:00,37.0,26.3,30.10,West,269,7.0,7.0,65,0.01,,CLR,0.03,0.00,VWS V14.01,2013-04-19 08:51:00,
2013-04-19 03:56:00,37.0,26.0,30.10,West,279,0.0,5.0,64,0.01,,CLR,0.03,0.00,VWS V14.01,2013-04-19 08:56:00,
2013-04-19 04:01:00,37.0,26.0,30.11,NW,309,0.0,6.0,64,0.01,,CLR,0.03,0.00,VWS V14.01,2013-04-19 09:01:00,
2013-04-19 04:06:00,37.0,26.0,30.11,WNW,299,0.0,0.0,64,0.00,,CLR,0.03,0.00,VWS V14.01,2013-04-19 09:06:00,
2013-04-19 04:11:00,36.8,25.8,30.11,WNW,299,0.0,0.0,64,0.00,,CLR,0.03,0.00,VWS V14.01,2013-04-19 09:11:00,
2013-04-19 04:16:00,36.8,25.8,30.11,NW,304,0.0,0.0,64,0.00,,CLR,0.03,0.00,VWS V14.01,2013-04-19 09:16:00,
2013-04-19 04:21:00,36.8,25.8,30.11,NW,306,0.0,0.0,64,0.00,,CLR,0.03,0.00,VWS V14.01,2013-04-19 09:21:00,
2013-04-19 04:26:00,36.7,25.7,30.11,NW,323,0.0,0.0,64,0.00,,CLR,0.03,0.00,VWS V14.01,2013-04-19 09:26:00,
2013-04-19 04:31:00,36.7,25.7,30.11,NW,311,0.0,0.0,64,0.00,,CLR,0.03,0.00,VWS V14.01,2013-04-19 09:31:00,
2013-04-19 04:36:00,36.5,25.5,30.11,NW,304,0.0,0.0,64,0.00,,CLR,0.03,0.00,VWS V14.01,2013-04-19 09:36:00,
2013-04-19 04:41:00,36.5,25.9,30.11,NW,304,0.0,0.0,65,0.00,,CLR,0.03,0.00,VWS V14.01,2013-04-19 09:41:00,
2013-04-19 04:46:00,36.4,25.8,30.12,NW,304,0.0,0.0,65,0.00,,CLR,0.03,0.00,VWS V14.01,2013-04-19 09:46:00,
2013-04-19 04:51:00,36.3,25.7,30.12,WNW,294,0.0,16.0,65,0.00,,CLR,0.03,0.00,VWS V14.01,2013-04-19 09:51:00,
2013-04-19 04:56:00,36.1,25.9,30.12,NNW,329,0.0,0.0,66,0.00,,CLR,0.03,0.00,VWS V14.01,2013-04-19 09:56:00,
2013-04-19 05:01:00,36.0,25.8,30.12,WNW,302,0.0,0.0,66,0.00,,CLR,0.03,0.00,VWS V14.01,2013-04-19 10:01:00,
2013-04-19 05:06:00,36.0,25.8,30.12,NW,306,0.0,0.0,66,0.00,,CLR,0.03,0.00,VWS V14.01,2013-04-19 10:06:00,
2013-04-19 05:11:00,35.8,25.6,30.12,NW,305,0.0,0.0,66,0.01,,CLR,0.04,0.00,VWS V14.01,2013-04-19 10:11:00,
2013-04-19 05:16:00,35.8,25.6,30.12,NW,311,0.0,0.0,66,0.01,,CLR,0.04,0.00,VWS V14.01,2013-04-19 10:16:00,
2013-04-19 05:21:00,35.7,25.5,30.12,WNW,290,0.0,0.0,66,0.01,,CLR,0.04,0.00,VWS V14.01,2013-04-19 10:21:00,
2013-04-19 05:26:00,35.5,25.6,30.12,West,281,0.0,0.0,67,0.01,,CLR,0.04,0.00,VWS V14.01,2013-04-19 10:26:00,
2013-04-19 05:31:00,35.5,25.6,30.12,WNW,285,0.0,0.0,67,0.01,,CLR,0.04,0.00,VWS V14.01,2013-04-19 10:31:00,
2013-04-19 05:36:00,35.4,25.5,30.12,WNW,293,0.0,0.0,67,0.01,,CLR,0.04,0.00,VWS V14.01,2013-04-19 10:36:00,
2013-04-19 05:41:00,35.3,25.8,30.12,WNW,298,0.0,0.0,68,0.01,,CLR,0.04,0.00,VWS V14.01,2013-04-19 10:41:00,
2013-04-19 05:46:00,35.3,25.8,30.13,West,281,0.0,0.0,68,0.01,,CLR,0.04,0.00,VWS V14.01,2013-04-19 10:46:00,
2013-04-19 05:51:00,35.1,25.6,30.13,WNW,288,0.0,0.0,68,0.01,,CLR,0.04,0.00,VWS V14.01,2013-04-19 10:51:00,
2013-04-19 05:56:00,35.0,25.5,30.13,NW,304,0.0,0.0,68,0.01,,CLR,0.04,0.00,VWS V14.01,2013-04-19 10:56:00,
2013-04-19 06:01:00,35.0,25.9,30.14,NW,306,0.0,0.0,69,0.01,,CLR,0.04,0.00,VWS V14.01,2013-04-19 11:01:00,
2013-04-19 06:06:00,34.8,25.7,30.14,WNW,302,0.0,0.0,69,0.01,,CLR,0.04,0.00,VWS V14.01,2013-04-19 11:06:00,
2013-04-19 06:11:00,34.8,25.7,30.14,WNW,290,0.0,0.0,69,0.00,,CLR,0.04,0.00,VWS V14.01,2013-04-19 11:11:00,
2013-04-19 06:16:00,34.7,25.6,30.14,WNW,289,0.0,0.0,69,0.00,,CLR,0.04,0.00,VWS V14.01,2013-04-19 11:16:00,
2013-04-19 06:21:00,34.7,25.6,30.14,NW,309,0.0,0.0,69,0.00,,CLR,0.04,0.00,VWS V14.01,2013-04-19 11:21:00,
2013-04-19 06:26:00,34.7,25.6,30.14,NW,304,0.0,0.0,69,0.00,,CLR,0.04,0.00,VWS V14.01,2013-04-19 11:26:00,
2013-04-19 06:31:00,34.7,25.6,30.15,WNW,296,0.0,0.0,69,0.00,,CLR,0.04,0.00,VWS V14.01,2013-04-19 11:31:00,
2013-04-19 06:36:00,34.5,25.4,30.15,WNW,286,0.0,0.0,69,0.00,,CLR,0.04,0.00,VWS V14.01,2013-04-19 11:36:00,
2013-04-19 06:41:00,34.5,25.4,30.15,WNW,282,0.0,0.0,69,0.00,,CLR,0.04,0.00,VWS V14.01,2013-04-19 11:41:00,
2013-04-19 06:46:00,34.5,25.4,30.16,WNW,289,0.0,0.0,69,0.00,,CLR,0.04,5.75,VWS V14.01,2013-04-19 11:46:00,
2013-04-19 06:51:00,34.5,25.4,30.16,WNW,300,0.0,7.0,69,0.00,,CLR,0.04,10.35,VWS V14.01,2013-04-19 11:51:00,
2013-04-19 06:56:00,34.5,25.4,30.16,WNW,291,0.0,1.0,69,0.00,,CLR,0.04,16.10,VWS V14.01,2013-04-19 11:56:00,
2013-04-19 07:01:00,34.7,25.6,30.17,WNW,290,0.0,2.0,69,0.01,,CLR,0.05,21.85,VWS V14.01,2013-04-19 12:01:00,
2013-04-19 07:06:00,34.8,25.7,30.17,WNW,294,0.0,0.0,69,0.01,,CLR,0.05,28.75,VWS V14.01,2013-04-19 12:06:00,
2013-04-19 07:11:00,34.8,25.7,30.17,WNW,294,0.0,0.0,69,0.01,,CLR,0.05,40.25,VWS V14.01,2013-04-19 12:11:00,
2013-04-19 07:16:00,35.0,25.9,30.17,WNW,285,0.0,0.0,69,0.01,,CLR,0.05,48.30,VWS V14.01,2013-04-19 12:16:00,
2013-04-19 07:21:00,35.1,26.0,30.17,WNW,298,0.0,0.0,69,0.01,,CLR,0.05,44.85,VWS V14.01,2013-04-19 12:21:00,
2013-04-19 07:26:00,35.3,25.8,30.17,NW,315,0.0,0.0,68,0.01,,CLR,0.05,58.65,VWS V14.01,2013-04-19 12:26:00,
2013-04-19 07:31:00,35.5,26.0,30.18,WNW,293,0.0,0.0,68,0.01,,CLR,0.05,88.55,VWS V14.01,2013-04-19 12:31:00,
2013-04-19 07:36:00,35.8,26.3,30.18,West,274,12.0,12.0,68,0.01,,CLR,0.05,135.70,VWS V14.01,2013-04-19 12:36:00,
2013-04-19 07:41:00,36.3,26.4,30.18,NNW,338,9.0,9.0,67,0.01,,CLR,0.05,151.80,VWS V14.01,2013-04-19 12:41:00,
2013-04-19 07:45:00,36.7,26.1,30.18,WNW,294,0.0,1.0,65,0.01,,CLR,0.05,171.35,VWS V14.01,2013-04-19 12:45:00,
2013-04-19 07:50:00,37.0,26.3,30.18,West,279,0.0,0.0,65,0.01,,CLR,0.05,189.75,VWS V14.01,2013-04-19 12:50:00,
2013-04-19 07:55:00,37.3,26.3,30.18,NW,312,0.0,0.0,64,0.01,,CLR,0.05,210.45,VWS V14.01,2013-04-19 12:55:00,
2013-04-19 08:00:00,37.4,26.4,30.18,NNW,329,1.0,2.0,64,0.00,,CLR,0.05,232.30,VWS V14.01,2013-04-19 13:00:00,
2013-04-19 08:05:00,38.0,26.9,30.18,NW,309,0.0,0.0,64,0.00,,CLR,0.05,250.70,VWS V14.01,2013-04-19 13:05:00,
2013-04-19 08:10:00,38.0,26.5,30.18,West,281,10.0,11.0,63,0.00,,CLR,0.05,272.55,VWS V14.01,2013-04-19 13:10:00,
2013-04-19 08:15:00,38.3,26.8,30.19,NW,311,5.0,5.0,63,0.00,,CLR,0.05,288.65,VWS V14.01,2013-04-19 13:15:00,
2013-04-19 08:20:00,38.1,26.2,30.19,NW,324,2.0,4.0,62,0.00,,CLR,0.05,311.65,VWS V14.01,2013-04-19 13:20:00,
2013-04-19 08:25:00,38.1,25.9,30.19,NW,313,9.0,9.0,61,0.00,,CLR,0.05,331.20,VWS V14.01,2013-04-19 13:25:00,
2013-04-19 08:30:00,38.7,26.4,30.19,NNW,333,0.0,0.0,61,0.00,,CLR,0.05,351.90,VWS V14.01,2013-04-19 13:30:00,
2013-04-19 08:35:00,39.4,27.1,30.19,NW,310,0.0,0.0,61,0.00,,CLR,0.05,373.75,VWS V14.01,2013-04-19 13:35:00,
2013-04-19 08:40:00,39.8,27.1,30.19,NW,311,1.0,3.0,60,0.00,,CLR,0.05,392.15,VWS V14.01,2013-04-19 13:40:00,
2013-04-19 08:45:00,39.6,26.5,30.19,NW,312,0.0,0.0,59,0.00,,CLR,0.05,410.55,VWS V14.01,2013-04-19 13:45:00,
2013-04-19 08:50:00,40.0,27.6,30.19,NNW,327,0.0,0.0,61,0.00,,CLR,0.05,430.10,VWS V14.01,2013-04-19 13:50:00,
2013-04-19 08:55:00,39.6,26.5,30.19,NNW,338,0.0,0.0,59,0.00,,CLR,0.05,450.80,VWS V14.01,2013-04-19 13:55:00,
2013-04-19 09:00:00,40.3,27.1,30.19,WNW,302,4.0,4.0,59,0.00,,CLR,0.05,466.90,VWS V14.01,2013-04-19 14:00:00,
2013-04-19 09:05:00,40.4,27.2,30.19,WNW,299,0.0,2.0,59,0.00,,CLR,0.05,488.75,VWS V14.01,2013-04-19 14:05:00,
2013-04-19 09:10:00,40.3,27.1,30.19,NNW,329,0.0,0.0,59,0.00,,CLR,0.05,509.45,VWS V14.01,2013-04-19 14:10:00,
2013-04-19 09:15:00,40.6,27.0,30.20,NW,311,0.0,0.0,58,0.00,,CLR,0.05,530.15,VWS V14.01,2013-04-19 14:15:00,
2013-04-19 09:20:00,41.0,27.0,30.20,NNW,334,0.0,0.0,57,0.00,,CLR,0.05,546.25,VWS V14.01,2013-04-19 14:20:00,
2013-04-19 09:25:00,41.7,27.2,30.20,NW,316,0.0,0.0,56,0.00,,CLR,0.05,562.35,VWS V14.01,2013-04-19 14:25:00,
2013-04-19 09:30:00,41.7,27.2,30.20,NNW,333,0.0,1.0,56,0.00,,CLR,0.05,581.90,VWS V14.01,2013-04-19 14:30:00,
2013-04-19 09:35:00,41.7,26.3,30.20,NNW,333,0.0,0.0,54,0.00,,CLR,0.05,600.30,VWS V14.01,2013-04-19 14:35:00,
2013-04-19 09:40:00,42.6,27.1,30.20,WNW,298,0.0,0.0,54,0.00,,CLR,0.05,618.70,VWS V14.01,2013-04-19 14:40:00,
2013-04-19 09:45:00,43.1,26.2,30.20,NNW,330,2.0,5.0,51,0.00,,CLR,0.05,637.10,VWS V14.01,2013-04-19 14:45:00,
2013-04-19 09:50:00,43.1,26.7,30.20,North,5,0.0,0.0,52,0.00,,CLR,0.05,653.20,VWS V14.01,2013-04-19 14:50:00,
2013-04-19 09:55:00,43.7,27.2,30.20,WNW,292,4.0,4.0,52,0.00,,CLR,0.05,669.30,VWS V14.01,2013-04-19 14:55:00,
2013-04-19 10:00:00,44.0,27.5,30.20,WNW,292,3.0,4.0,52,0.00,,CLR,0.05,687.70,VWS V14.01,2013-04-19 15:00:00,
2013-04-19 10:05:00,44.6,27.6,30.20,West,277,4.0,4.0,51,0.00,,CLR,0.05,703.80,VWS V14.01,2013-04-19 15:05:00,
2013-04-19 10:10:00,44.5,26.0,30.20,NNW,328,0.0,1.0,48,0.00,,CLR,0.05,723.35,VWS V14.01,2013-04-19 15:10:00,
2013-04-19 10:15:00,45.5,27.0,30.20,WNW,282,5.0,5.0,48,0.00,,CLR,0.05,738.30,VWS V14.01,2013-04-19 15:15:00,
2013-04-19 10:20:00,45.3,26.8,30.20,West,266,2.0,2.0,48,0.01,,CLR,0.06,749.80,VWS V14.01,2013-04-19 15:20:00,
2013-04-19 10:25:00,45.6,25.5,30.20,NW,321,0.0,0.0,45,0.01,,CLR,0.06,757.85,VWS V14.01,2013-04-19 15:25:00,
2013-04-19 10:30:00,45.5,25.4,30.20,NW,304,9.0,9.0,45,0.01,,CLR,0.06,780.85,VWS V14.01,2013-04-19 15:30:00,
2013-04-19 10:35:00,46.4,25.7,30.20,NW,314,0.0,0.0,44,0.01,,CLR,0.06,794.65,VWS V14.01,2013-04-19 15:35:00,
2013-04-19 10:40:00,46.7,27.0,30.20,NW,314,0.0,0.0,46,0.01,,CLR,0.06,808.45,VWS V14.01,2013-04-19 15:40:00,
2013-04-19 10:45:00,47.1,24.6,30.20,WNW,294,0.0,0.0,41,0.01,,CLR,0.06,826.85,VWS V14.01,2013-04-19 15:45:00,
2013-04-19 10:50:00,48.1,26.1,30.20,WNW,287,14.0,14.0,42,0.01,,CLR,0.06,842.95,VWS V14.01,2013-04-19 15:50:00,
2013-04-19 10:55:00,48.1,27.2,30.20,WNW,284,0.0,0.0,44,0.01,,CLR,0.06,848.70,VWS V14.01,2013-04-19 15:55:00,
2013-04-19 11:00:00,47.9,27.0,30.19,NW,315,0.0,0.0,44,0.01,,CLR,0.06,863.65,VWS V14.01,2013-04-19 16:00:00,
2013-04-19 11:05:00,48.6,26.6,30.19,NNW,344,0.0,13.0,42,0.01,,CLR,0.06,879.75,VWS V14.01,2013-04-19 16:05:00,
2013-04-19 11:10:00,47.6,26.8,30.19,NNW,342,0.0,0.0,44,0.01,,CLR,0.06,888.95,VWS V14.01,2013-04-19 16:10:00,
2013-04-19 11:15:00,47.9,26.5,30.20,West,267,3.0,3.0,43,0.01,,CLR,0.06,897.00,VWS V14.01,2013-04-19 16:15:00,
2013-04-19 11:20:00,48.4,27.5,30.20,West,267,12.0,12.0,44,0.00,,CLR,0.06,914.25,VWS V14.01,2013-04-19 16:20:00,
2013-04-19 11:25:00,48.6,26.6,30.20,West,280,0.0,14.0,42,0.00,,CLR,0.06,920.00,VWS V14.01,2013-04-19 16:25:00,
2013-04-19 11:30:00,48.7,26.1,30.20,West,281,12.0,13.0,41,0.00,,CLR,0.06,931.50,VWS V14.01,2013-04-19 16:30:00,
2013-04-19 11:35:00,49.0,28.0,30.20,NW,320,2.0,14.0,44,0.00,,CLR,0.06,941.85,VWS V14.01,2013-04-19 16:35:00,
2013-04-19 11:40:00,49.2,25.9,30.20,NW,315,12.0,12.0,40,0.00,,CLR,0.06,947.60,VWS V14.01,2013-04-19 16:40:00,
2013-04-19 11:45:00,50.1,26.7,30.20,WNW,291,0.0,16.0,40,0.00,,CLR,0.06,955.65,VWS V14.01,2013-04-19 16:45:00,
2013-04-19 11:50:00,49.9,25.3,30.20,West,279,3.0,13.0,38,0.00,,CLR,0.06,968.30,VWS V14.01,2013-04-19 16:50:00,
2013-04-19 11:55:00,50.1,27.9,30.20,NW,314,6.0,21.0,42,0.00,,CLR,0.06,978.65,VWS V14.01,2013-04-19 16:55:00,
2013-04-19 12:00:00,50.5,26.5,30.20,WNW,299,10.0,14.0,39,0.00,,CLR,0.06,989.00,VWS V14.01,2013-04-19 17:00:00,
2013-04-19 12:05:00,50.2,25.6,30.20,West,277,0.0,17.0,38,0.00,,CLR,0.06,990.15,VWS V14.01,2013-04-19 17:05:00,
2013-04-19 12:10:00,50.4,24.5,30.20,West,281,11.0,18.0,36,0.00,,CLR,0.06,997.05,VWS V14.01,2013-04-19 17:10:00,
2013-04-19 12:15:00,49.9,26.0,30.20,WNW,284,0.0,13.0,39,0.00,,CLR,0.06,1000.50,VWS V14.01,2013-04-19 17:15:00,
2013-04-19 12:20:00,51.3,26.6,30.20,NW,323,0.0,13.0,38,0.00,,CLR,0.06,1006.25,VWS V14.01,2013-04-19 17:20:00,
2013-04-19 12:25:00,51.3,25.3,30.20,NW,326,0.0,12.0,36,0.00,,CLR,0.06,1005.10,VWS V14.01,2013-04-19 17:25:00,
2013-04-19 12:30:00,51.1,25.8,30.19,NW,309,1.0,12.0,37,0.00,,CLR,0.06,1016.60,VWS V14.01,2013-04-19 17:30:00,
2013-04-19 12:35:00,51.6,26.8,30.19,WNW,285,12.0,15.0,38,0.00,,CLR,0.06,1021.20,VWS V14.01,2013-04-19 17:35:00,
2013-04-19 12:40:00,51.4,24.7,30.19,NW,307,1.0,14.0,35,0.00,,CLR,0.06,1024.65,VWS V14.01,2013-04-19 17:40:00,
2013-04-19 12:45:00,51.8,25.0,30.18,West,266,0.0,12.0,35,0.00,,CLR,0.06,1030.40,VWS V14.01,2013-04-19 17:45:00,
2013-04-19 12:50:00,52.1,24.6,30.18,West,267,0.0,14.0,34,0.00,,CLR,0.06,1035.00,VWS V14.01,2013-04-19 17:50:00,
2013-04-19 12:55:00,51.8,25.7,30.18,NW,320,0.0,12.0,36,0.00,,CLR,0.06,1032.70,VWS V14.01,2013-04-19 17:55:00,
2013-04-19 13:00:00,52.3,26.2,30.17,West,266,0.0,15.0,36,0.00,,CLR,0.06,1037.30,VWS V14.01,2013-04-19 18:00:00,
2013-04-19 13:05:00,53.0,26.1,30.17,West,277,0.0,10.0,35,0.00,,CLR,0.06,1037.30,VWS V14.01,2013-04-19 18:05:00,
2013-04-19 13:10:00,53.2,24.9,30.17,WSW,248,0.0,16.0,33,0.00,,CLR,0.06,1040.75,VWS V14.01,2013-04-19 18:10:00,
2013-04-19 13:15:00,53.9,25.5,30.17,NNW,334,0.0,1.0,33,0.00,,CLR,0.06,1040.75,VWS V14.01,2013-04-19 18:15:00,
2013-04-19 13:20:00,54.1,24.9,30.17,WNW,285,0.0,14.0,32,0.00,,CLR,0.06,1040.75,VWS V14.01,2013-04-19 18:20:00,
2013-04-19 13:25:00,53.8,23.9,30.17,West,271,0.0,14.0,31,0.00,,CLR,0.06,1040.75,VWS V14.01,2013-04-19 18:25:00,
2013-04-19 13:30:00,53.6,24.5,30.16,WNW,286,0.0,3.0,32,0.00,,CLR,0.06,1039.60,VWS V14.01,2013-04-19 18:30:00,
2013-04-19 13:35:00,54.1,24.2,30.16,West,262,0.0,16.0,31,0.00,,CLR,0.06,1040.75,VWS V14.01,2013-04-19 18:35:00,
2013-04-19 13:40:00,54.2,26.5,30.16,WNW,285,0.0,4.0,34,0.00,,CLR,0.06,1039.60,VWS V14.01,2013-04-19 18:40:00,
2013-04-19 13:45:00,54.7,25.4,30.15,NW,309,0.0,3.0,32,0.00,,CLR,0.06,1037.30,VWS V14.01,2013-04-19 18:45:00,
2013-04-19 13:50:00,55.2,25.9,30.15,WNW,300,0.0,11.0,32,0.00,,CLR,0.06,1030.40,VWS V14.01,2013-04-19 18:50:00,
2013-04-19 13:55:00,54.8,24.8,30.15,West,275,0.0,12.0,31,0.00,,CLR,0.06,1030.40,VWS V14.01,2013-04-19 18:55:00,
2013-04-19 14:00:00,54.7,25.4,30.15,SW,231,0.0,2.0,32,0.00,,CLR,0.06,1026.95,VWS V14.01,2013-04-19 19:00:00,
2013-04-19 14:05:00,56.5,23.8,30.15,West,269,10.0,14.0,28,0.00,,CLR,0.06,1024.65,VWS V14.01,2013-04-19 19:05:00,
2013-04-19 14:10:00,56.0,25.0,30.15,West,279,0.0,13.0,30,0.00,,CLR,0.06,1018.90,VWS V14.01,2013-04-19 19:10:00,
2013-04-19 14:15:00,56.0,24.2,30.15,NW,304,1.0,14.0,29,0.00,,CLR,0.06,1014.30,VWS V14.01,2013-04-19 19:15:00,
2013-04-19 14:20:00,56.3,23.6,30.15,NW,321,0.0,12.0,28,0.00,,CLR,0.06,1005.10,VWS V14.01,2013-04-19 19:20:00,
2013-04-19 14:25:00,57.4,25.4,30.15,NW,317,0.0,12.0,29,0.00,,CLR,0.06,1000.50,VWS V14.01,2013-04-19 19:25:00,
2013-04-19 14:30:00,56.9,22.4,30.14,West,273,1.0,14.0,26,0.00,,CLR,0.06,992.45,VWS V14.01,2013-04-19 19:30:00,
2013-04-19 14:35:00,56.6,20.2,30.14,WNW,288,10.0,18.0,24,0.00,,CLR,0.06,986.70,VWS V14.01,2013-04-19 19:35:00,
2013-04-19 14:40:00,56.9,22.4,30.14,WSW,257,14.0,16.0,26,0.00,,CLR,0.06,978.65,VWS V14.01,2013-04-19 19:40:00,
2013-04-19 14:45:00,56.9,22.4,30.13,WNW,302,1.0,15.0,26,0.00,,CLR,0.06,970.60,VWS V14.01,2013-04-19 19:45:00,
2013-04-19 14:50:00,57.1,23.5,30.13,West,273,0.0,4.0,27,0.00,,CLR,0.06,955.65,VWS V14.01,2013-04-19 19:50:00,
2013-04-19 14:55:00,58.6,24.8,30.13,West,259,4.0,11.0,27,0.00,,CLR,0.06,949.90,VWS V14.01,2013-04-19 19:55:00,
2013-04-19 15:00:00,57.7,24.0,30.13,WSW,256,0.0,12.0,27,0.00,,CLR,0.06,939.55,VWS V14.01,2013-04-19 20:00:00,
2013-04-19 15:05:00,58.4,25.5,30.13,WSW,241,2.0,3.0,28,0.00,,CLR,0.06,930.35,VWS V14.01,2013-04-19 20:05:00,
2013-04-19 15:10:00,58.9,24.1,30.13,WSW,257,0.0,7.0,26,0.00,,CLR,0.06,920.00,VWS V14.01,2013-04-19 20:10:00,
2013-04-19 15:15:00,58.9,25.9,30.12,WSW,248,0.0,9.0,28,0.00,,CLR,0.06,911.95,VWS V14.01,2013-04-19 20:15:00,
2013-04-19 15:20:00,59.2,27.0,30.12,WSW,257,0.0,6.0,29,0.00,,CLR,0.06,897.00,VWS V14.01,2013-04-19 20:20:00,
2013-04-19 15:25:00,58.6,24.8,30.12,West,271,0.0,4.0,27,0.00,,CLR,0.06,887.80,VWS V14.01,2013-04-19 20:25:00,
2013-04-19 15:30:00,58.3,23.6,30.12,West,265,0.0,14.0,26,0.00,,CLR,0.06,875.15,VWS V14.01,2013-04-19 20:30:00,
2013-04-19 15:35:00,58.9,25.0,30.12,West,275,1.0,13.0,27,0.00,,CLR,0.06,867.10,VWS V14.01,2013-04-19 20:35:00,
2013-04-19 15:40:00,59.5,27.2,30.12,West,280,0.0,10.0,29,0.00,,CLR,0.06,848.70,VWS V14.01,2013-04-19 20:40:00,
2013-04-19 15:45:00,59.8,27.5,30.11,WNW,284,0.0,7.0,29,0.00,,CLR,0.06,834.90,VWS V14.01,2013-04-19 20:45:00,
2013-04-19 15:50:00,59.7,25.7,30.11,NW,310,0.0,6.0,27,0.00,,CLR,0.06,824.55,VWS V14.01,2013-04-19 20:50:00,
2013-04-19 15:55:00,60.0,27.7,30.11,SSW,192,0.0,7.0,29,0.00,,CLR,0.06,810.75,VWS V14.01,2013-04-19 20:55:00,
2013-04-19 16:00:00,60.1,27.8,30.10,WNW,298,6.0,18.0,29,0.00,,CLR,0.06,796.95,VWS V14.01,2013-04-19 21:00:00,
2013-04-19 16:05:00,59.8,28.3,30.10,NW,310,0.0,13.0,30,0.00,,CLR,0.06,778.55,VWS V14.01,2013-04-19 21:05:00,
2013-04-19 16:10:00,60.0,27.7,30.10,WNW,291,0.0,16.0,29,0.00,,CLR,0.06,762.45,VWS V14.01,2013-04-19 21:10:00,
2013-04-19 16:15:00,60.1,27.8,30.10,NW,324,4.0,9.0,29,0.00,,CLR,0.06,746.35,VWS V14.01,2013-04-19 21:15:00,
2013-04-19 16:20:00,60.3,28.8,30.10,NW,315,1.0,7.0,30,0.00,,CLR,0.06,727.95,VWS V14.01,2013-04-19 21:20:00,
2013-04-19 16:25:00,60.1,27.8,30.10,WNW,286,0.0,17.0,29,0.00,,CLR,0.06,711.85,VWS V14.01,2013-04-19 21:25:00,
2013-04-19 16:30:00,60.1,27.8,30.10,West,277,0.0,9.0,29,0.00,,CLR,0.06,695.75,VWS V14.01,2013-04-19 21:30:00,
2013-04-19 16:35:00,61.2,28.7,30.10,West,279,0.0,6.0,29,0.00,,CLR,0.06,679.65,VWS V14.01,2013-04-19 21:35:00,
2013-04-19 16:40:00,60.5,28.1,30.10,WNW,300,2.0,13.0,29,0.00,,CLR,0.06,667.00,VWS V14.01,2013-04-19 21:40:00,
2013-04-19 16:45:00,60.3,28.8,30.09,WNW,293,0.0,6.0,30,0.00,,CLR,0.06,647.45,VWS V14.01,2013-04-19 21:45:00,
2013-04-19 16:50:00,61.4,29.7,30.09,West,260,5.0,6.0,30,0.00,,CLR,0.06,630.20,VWS V14.01,2013-04-19 21:50:00,
2013-04-19 16:55:00,61.4,29.7,30.09,NW,323,12.0,12.0,30,0.00,,CLR,0.06,610.65,VWS V14.01,2013-04-19 21:55:00,
2013-04-19 17:00:00,60.9,29.3,30.09,West,280,0.0,10.0,30,0.00,,CLR,0.06,594.55,VWS V14.01,2013-04-19 22:00:00,
2013-04-19 17:05:00,60.9,30.1,30.09,WNW,288,0.0,17.0,31,0.00,,CLR,0.06,573.85,VWS V14.01,2013-04-19 22:05:00,
2013-04-19 17:10:00,60.9,30.1,30.09,WNW,284,4.0,6.0,31,0.00,,CLR,0.06,555.45,VWS V14.01,2013-04-19 22:10:00,
2013-04-19 17:15:00,61.2,29.5,30.09,WNW,297,1.0,9.0,30,0.00,,CLR,0.06,535.90,VWS V14.01,2013-04-19 22:15:00,
2013-04-19 17:20:00,61.2,30.4,30.09,NW,322,0.0,5.0,31,0.00,,CLR,0.06,517.50,VWS V14.01,2013-04-19 22:20:00,
2013-04-19 17:25:00,60.9,29.3,30.09,WNW,299,2.0,13.0,30,0.00,,CLR,0.06,495.65,VWS V14.01,2013-04-19 22:25:00,
2013-04-19 17:30:00,60.9,30.1,30.09,WNW,285,2.0,9.0,31,0.00,,CLR,0.06,479.55,VWS V14.01,2013-04-19 22:30:00,
2013-04-19 17:35:00,61.1,30.3,30.09,WSW,238,0.0,7.0,31,0.00,,CLR,0.06,456.55,VWS V14.01,2013-04-19 22:35:00,
2013-04-19 17:40:00,61.2,31.1,30.09,WSW,246,0.0,6.0,32,0.00,,CLR,0.06,440.45,VWS V14.01,2013-04-19 22:40:00,
2013-04-19 17:45:00,61.4,31.3,30.08,West,279,6.0,12.0,32,0.00,,CLR,0.06,418.60,VWS V14.01,2013-04-19 22:45:00,
2013-04-19 17:50:00,61.4,31.3,30.08,West,272,0.0,6.0,32,0.00,,CLR,0.06,397.90,VWS V14.01,2013-04-19 22:50:00,
2013-04-19 17:55:00,61.4,31.3,30.08,WNW,292,0.0,7.0,32,0.00,,CLR,0.06,379.50,VWS V14.01,2013-04-19 22:55:00,
2013-04-19 18:00:00,61.6,31.5,30.08,WNW,295,0.0,7.0,32,0.00,,CLR,0.06,254.15,VWS V14.01,2013-04-19 23:00:00,
2013-04-19 18:05:00,61.7,31.6,30.08,WSW,244,5.0,7.0,32,0.00,,CLR,0.06,248.40,VWS V14.01,2013-04-19 23:05:00,
2013-04-19 18:10:00,61.7,30.8,30.08,West,281,4.0,10.0,31,0.00,,CLR,0.06,261.05,VWS V14.01,2013-04-19 23:10:00,
2013-04-19 18:15:00,61.6,30.7,30.07,West,268,1.0,6.0,31,0.00,,CLR,0.06,139.15,VWS V14.01,2013-04-19 23:15:00,
2013-04-19 18:20:00,61.6,31.5,30.07,WNW,284,4.0,9.0,32,0.00,,CLR,0.06,157.55,VWS V14.01,2013-04-19 23:20:00,
2013-04-19 18:25:00,61.4,30.5,30.07,West,263,14.0,14.0,31,0.00,,CLR,0.06,71.30,VWS V14.01,2013-04-19 23:25:00,
2013-04-19 18:30:00,61.4,30.5,30.07,WNW,297,0.0,16.0,31,0.00,,CLR,0.06,82.80,VWS V14.01,2013-04-19 23:30:00,
2013-04-19 18:35:00,61.4,31.3,30.07,WNW,284,0.0,7.0,32,0.00,,CLR,0.06,64.40,VWS V14.01,2013-04-19 23:35:00,
2013-04-19 18:40:00,61.4,31.3,30.07,SW,229,0.0,6.0,32,0.00,,CLR,0.06,71.30,VWS V14.01,2013-04-19 23:40:00,
2013-04-19 18:45:00,61.4,31.3,30.07,WNW,286,2.0,7.0,32,0.00,,CLR,0.06,58.65,VWS V14.01,2013-04-19 23:45:00,
2013-04-19 18:50:00,61.2,30.4,30.07,West,268,2.0,8.0,31,0.00,,CLR,0.06,79.35,VWS V14.01,2013-04-19 23:50:00,
2013-04-19 18:55:00,61.1,30.3,30.07,WSW,255,0.0,7.0,31,0.00,,CLR,0.06,79.35,VWS V14.01,2013-04-19 23:55:00,
2013-04-19 19:00:00,61.1,31.0,30.07,WSW,252,1.0,10.0,32,0.00,,CLR,0.06,71.30,VWS V14.01,2013-04-20 00:00:00,
2013-04-19 19:05:00,60.9,30.1,30.07,West,261,3.0,6.0,31,0.00,,CLR,0.06,48.30,VWS V14.01,2013-04-20 00:05:00,
2013-04-19 19:10:00,60.9,30.1,30.07,West,261,4.0,6.0,31,0.00,,CLR,0.06,46.00,VWS V14.01,2013-04-20 00:10:00,
2013-04-19 19:15:00,60.8,30.8,30.07,WNW,289,0.0,3.0,32,0.00,,CLR,0.06,42.55,VWS V14.01,2013-04-20 00:15:00,
2013-04-19 19:20:00,60.6,30.6,30.07,WNW,287,0.0,7.0,32,0.00,,CLR,0.06,34.50,VWS V14.01,2013-04-20 00:20:00,
2013-04-19 19:25:00,60.5,30.5,30.07,West,281,4.0,6.0,32,0.00,,CLR,0.06,29.90,VWS V14.01,2013-04-20 00:25:00,
2013-04-19 19:30:00,60.3,30.3,30.07,West,264,3.0,5.0,32,0.00,,CLR,0.06,26.45,VWS V14.01,2013-04-20 00:30:00,
2013-04-19 19:35:00,60.3,30.3,30.07,West,266,5.0,6.0,32,0.00,,CLR,0.06,21.85,VWS V14.01,2013-04-20 00:35:00,
2013-04-19 19:40:00,60.1,30.9,30.07,WSW,254,1.0,4.0,33,0.00,,CLR,0.06,18.40,VWS V14.01,2013-04-20 00:40:00,
2013-04-19 19:45:00,60.1,30.9,30.07,WSW,250,0.0,3.0,33,0.00,,CLR,0.06,13.80,VWS V14.01,2013-04-20 00:45:00,
2013-04-19 19:50:00,60.0,30.1,30.07,WSW,251,0.0,4.0,32,0.00,,CLR,0.06,12.65,VWS V14.01,2013-04-20 00:50:00,
2013-04-19 19:55:00,59.8,29.9,30.07,WSW,249,0.0,0.0,32,0.00,,CLR,0.06,5.75,VWS V14.01,2013-04-20 00:55:00,
2013-04-19 20:00:00,59.7,29.8,30.07,WSW,249,0.0,3.0,32,0.00,,CLR,0.06,0.00,VWS V14.01,2013-04-20 01:00:00,
2013-04-19 20:05:00,59.5,30.4,30.07,WSW,249,0.0,0.0,33,0.00,,CLR,0.06,0.00,VWS V14.01,2013-04-20 01:05:00,
2013-04-19 20:10:00,59.4,31.0,30.07,WSW,249,0.0,0.0,34,0.00,,CLR,0.06,0.00,VWS V14.01,2013-04-20 01:10:00,
2013-04-19 20:15:00,59.2,30.9,30.07,WSW,249,0.0,0.0,34,0.00,,CLR,0.06,0.00,VWS V14.01,2013-04-20 01:15:00,
2013-04-19 20:20:00,59.0,30.7,30.07,WSW,249,0.0,0.0,34,0.00,,CLR,0.06,0.00,VWS V14.01,2013-04-20 01:20:00,
2013-04-19 20:25:00,58.9,31.3,30.07,WSW,249,0.0,0.0,35,0.00,,CLR,0.06,0.00,VWS V14.01,2013-04-20 01:25:00,
2013-04-19 20:30:00,58.6,31.0,30.07,WSW,249,0.0,0.0,35,0.00,,CLR,0.06,0.00,VWS V14.01,2013-04-20 01:30:00,
2013-04-19 20:35:00,58.3,31.5,30.07,WSW,249,0.0,0.0,36,0.00,,CLR,0.06,0.00,VWS V14.01,2013-04-20 01:35:00,
2013-04-19 20:40:00,58.0,31.2,30.07,WSW,249,0.0,0.0,36,0.00,,CLR,0.06,0.00,VWS V14.01,2013-04-20 01:40:00,
2013-04-19 20:45:00,57.5,31.5,30.08,WSW,249,0.0,0.0,37,0.00,,CLR,0.06,0.00,VWS V14.01,2013-04-20 01:45:00,
2013-04-19 20:50:00,57.2,31.8,30.08,WSW,249,0.0,0.0,38,0.00,,CLR,0.06,0.00,VWS V14.01,2013-04-20 01:50:00,
2013-04-19 20:55:00,56.8,32.8,30.08,WSW,249,0.0,0.0,40,0.00,,CLR,0.06,0.00,VWS V14.01,2013-04-20 01:55:00,
2013-04-19 21:00:00,56.3,32.3,30.08,WSW,249,0.0,0.0,40,0.00,,CLR,0.06,0.00,VWS V14.01,2013-04-20 02:00:00,
2013-04-19 21:05:00,56.0,32.7,30.08,WSW,249,0.0,0.0,41,0.00,,CLR,0.06,0.00,VWS V14.01,2013-04-20 02:05:00,
2013-04-19 21:10:00,55.5,32.8,30.08,WSW,249,0.0,0.0,42,0.00,,CLR,0.06,0.00,VWS V14.01,2013-04-20 02:10:00,
2013-04-19 21:15:00,55.2,33.1,30.08,WSW,249,0.0,0.0,43,0.00,,CLR,0.06,0.00,VWS V14.01,2013-04-20 02:15:00,
2013-04-19 21:20:00,55.0,32.9,30.08,WSW,249,0.0,0.0,43,0.00,,CLR,0.06,0.00,VWS V14.01,2013-04-20 02:20:00,
2013-04-19 21:25:00,54.5,33.0,30.08,WSW,249,0.0,0.0,44,0.00,,CLR,0.06,0.00,VWS V14.01,2013-04-20 02:25:00,
2013-04-19 21:30:00,54.4,33.0,30.09,WSW,249,0.0,0.0,44,0.00,,CLR,0.06,0.00,VWS V14.01,2013-04-20 02:30:00,
2013-04-19 21:35:00,54.1,32.7,30.09,WSW,249,0.0,0.0,44,0.00,,CLR,0.06,0.00,VWS V14.01,2013-04-20 02:35:00,
2013-04-19 21:40:00,53.9,32.5,30.09,WSW,249,0.0,0.0,44,0.00,,CLR,0.06,0.00,VWS V14.01,2013-04-20 02:40:00,
2013-04-19 21:45:00,53.6,32.8,30.09,WSW,249,0.0,0.0,45,0.00,,CLR,0.06,0.00,VWS V14.01,2013-04-20 02:45:00,
2013-04-19 21:50:00,53.3,33.1,30.09,WSW,249,0.0,0.0,46,0.00,,CLR,0.06,0.00,VWS V14.01,2013-04-20 02:50:00,
2013-04-19 21:55:00,53.0,33.3,30.09,WSW,249,0.0,0.0,47,0.00,,CLR,0.06,0.00,VWS V14.01,2013-04-20 02:55:00,
2013-04-19 22:00:00,52.9,33.8,30.10,WSW,249,0.0,0.0,48,0.00,,CLR,0.06,0.00,VWS V14.01,2013-04-20 03:00:00,
2013-04-19 22:05:00,52.6,33.5,30.10,WSW,249,0.0,0.0,48,0.00,,CLR,0.06,0.00,VWS V14.01,2013-04-20 03:05:00,
2013-04-19 22:10:00,52.3,33.7,30.10,WSW,249,0.0,0.0,49,0.00,,CLR,0.06,0.00,VWS V14.01,2013-04-20 03:10:00,
2013-04-19 22:15:00,52.0,34.0,30.10,WSW,249,0.0,0.0,50,0.00,,CLR,0.06,0.00,VWS V14.01,2013-04-20 03:15:00,
2013-04-19 22:20:00,51.8,33.8,30.10,WSW,249,0.0,0.0,50,0.00,,CLR,0.06,0.00,VWS V14.01,2013-04-20 03:20:00,
2013-04-19 22:25:00,51.6,34.1,30.10,WSW,249,0.0,0.0,51,0.00,,CLR,0.06,0.00,VWS V14.01,2013-04-20 03:25:00,
2013-04-19 22:30:00,51.4,34.4,30.11,WSW,249,0.0,0.0,52,0.00,,CLR,0.06,0.00,VWS V14.01,2013-04-20 03:30:00,
2013-04-19 22:35:00,51.3,34.3,30.11,WSW,249,0.0,0.0,52,0.00,,CLR,0.06,0.00,VWS V14.01,2013-04-20 03:35:00,
2013-04-19 22:40:00,51.1,34.1,30.11,WSW,249,0.0,0.0,52,0.00,,CLR,0.06,0.00,VWS V14.01,2013-04-20 03:40:00,
2013-04-19 22:45:00,51.0,34.0,30.11,WSW,249,0.0,0.0,52,0.00,,CLR,0.06,0.00,VWS V14.01,2013-04-20 03:45:00,
2013-04-19 22:50:00,51.0,34.0,30.11,WSW,249,0.0,0.0,52,0.00,,CLR,0.06,0.00,VWS V14.01,2013-04-20 03:50:00,
2013-04-19 22:55:00,50.8,34.3,30.11,WSW,249,0.0,0.0,53,0.00,,CLR,0.06,0.00,VWS V14.01,2013-04-20 03:55:00,
2013-04-19 23:00:00,50.7,34.7,30.10,WSW,249,0.0,0.0,54,0.00,,CLR,0.06,0.00,VWS V14.01,2013-04-20 04:00:00,
2013-04-19 23:01:00,50.5,35.0,30.10,WSW,249,0.0,0.0,55,0.00,,CLR,0.06,0.00,VWS V14.01,2013-04-20 04:01:00,
2013-04-19 23:06:00,50.4,34.9,30.10,WSW,249,0.0,0.0,55,0.00,,CLR,0.06,0.00,VWS V14.01,2013-04-20 04:06:00,
2013-04-19 23:11:00,50.2,34.7,30.10,WSW,249,0.0,0.0,55,0.00,,CLR,0.06,0.00,VWS V14.01,2013-04-20 04:11:00,
2013-04-19 23:16:00,49.9,34.8,30.10,WSW,249,0.0,0.0,56,0.00,,CLR,0.06,0.00,VWS V14.01,2013-04-20 04:16:00,
2013-04-19 23:21:00,49.6,35.0,30.10,WSW,250,0.0,0.0,57,0.00,,CLR,0.06,0.00,VWS V14.01,2013-04-20 04:21:00,
2013-04-19 23:26:00,49.3,34.7,30.10,WNW,296,0.0,0.0,57,0.00,,CLR,0.06,0.00,VWS V14.01,2013-04-20 04:26:00,
2013-04-19 23:31:00,49.2,34.6,30.11,WNW,296,0.0,0.0,57,0.00,,CLR,0.06,0.00,VWS V14.01,2013-04-20 04:31:00,
2013-04-19 23:36:00,49.0,34.5,30.11,WNW,296,0.0,0.0,57,0.00,,CLR,0.06,0.00,VWS V14.01,2013-04-20 04:36:00,
2013-04-19 23:41:00,49.0,34.0,30.11,WNW,296,0.0,0.0,56,0.00,,CLR,0.06,0.00,VWS V14.01,2013-04-20 04:41:00,
2013-04-19 23:46:00,49.2,34.2,30.11,WNW,296,0.0,0.0,56,0.00,,CLR,0.06,0.00,VWS V14.01,2013-04-20 04:46:00,
2013-04-19 23:51:00,49.2,34.2,30.11,WNW,296,0.0,0.0,56,0.00,,CLR,0.06,0.00,VWS V14.01,2013-04-20 04:51:00,
2013-04-19 23:56:00,49.2,34.2,30.11,WNW,296,0.0,0.0,56,0.00,,CLR,0.06,0.00,VWS V14.01,2013-04-20 04:56:00,